Time,TemperatureF,DewpointF,PressureIn,WindDirection,WindDirectionDegrees,WindSpeedMPH,WindSpeedGustMPH,Humidity,HourlyPrecipIn,Conditions,Clouds,dailyrainin,SoftwareType,DateUTC
2013-08-15 00:04:00,70.5,26.2,24.88,West,266,2.0,-999.0,19,-99.99,,,-99.99,dwt +perl,2013-08-15 07:04:00,
2013-08-15 00:09:00,70.5,25.0,24.88,West,266,0.0,-999.0,18,-99.99,,,-99.99,dwt +perl,2013-08-15 07:09:00,
2013-08-15 00:14:00,70.5,25.0,24.88,West,266,3.0,-999.0,18,-99.99,,,-99.99,dwt +perl,2013-08-15 07:14:00,
2013-08-15 00:19:00,70.7,23.8,24.88,West,266,3.0,-999.0,17,-99.99,,,-99.99,dwt +perl,2013-08-15 07:19:00,
2013-08-15 00:24:00,70.8,23.8,24.88,West,266,3.0,-999.0,17,-99.99,,,-99.99,dwt +perl,2013-08-15 07:24:00,
2013-08-15 00:29:00,71.0,24.0,24.88,West,266,4.0,-999.0,17,-99.99,,,-99.99,dwt +perl,2013-08-15 07:29:00,
2013-08-15 00:34:00,70.9,25.3,24.88,West,266,4.0,-999.0,18,-99.99,,,-99.99,dwt +perl,2013-08-15 07:34:00,
2013-08-15 00:39:00,70.5,26.2,24.88,WNW,294,7.0,-999.0,19,-99.99,,,-99.99,dwt +perl,2013-08-15 07:39:00,
2013-08-15 00:44:00,70.1,25.9,24.87,WNW,298,4.0,-999.0,19,-99.99,,,-99.99,dwt +perl,2013-08-15 07:44:00,
2013-08-15 00:49:00,70.1,24.6,24.88,WNW,298,4.0,-999.0,18,-99.99,,,-99.99,dwt +perl,2013-08-15 07:49:00,
2013-08-15 00:54:00,70.2,26.0,24.88,WNW,298,4.0,-999.0,19,-99.99,,,-99.99,dwt +perl,2013-08-15 07:54:00,
2013-08-15 00:59:00,70.1,27.2,24.87,WNW,298,3.0,-999.0,20,-99.99,,,-99.99,dwt +perl,2013-08-15 07:59:00,
2013-08-15 01:04:00,70.0,27.1,24.87,WNW,300,4.0,-999.0,20,-99.99,,,-99.99,dwt +perl,2013-08-15 08:04:00,
2013-08-15 01:09:00,70.3,24.8,24.87,WNW,300,3.0,-999.0,18,-99.99,,,-99.99,dwt +perl,2013-08-15 08:09:00,
2013-08-15 01:14:00,70.3,26.1,24.87,WNW,301,1.0,-999.0,19,-99.99,,,-99.99,dwt +perl,2013-08-15 08:14:00,
2013-08-15 01:19:00,70.2,24.7,24.87,WNW,301,1.0,-999.0,18,-99.99,,,-99.99,dwt +perl,2013-08-15 08:19:00,
2013-08-15 01:24:00,69.9,27.0,24.87,WNW,301,0.0,-999.0,20,-99.99,,,-99.99,dwt +perl,2013-08-15 08:24:00,
2013-08-15 01:29:00,69.9,24.5,24.87,WNW,301,0.0,-999.0,18,-99.99,,,-99.99,dwt +perl,2013-08-15 08:29:00,
2013-08-15 01:34:00,69.9,24.5,24.87,WNW,300,1.0,-999.0,18,-99.99,,,-99.99,dwt +perl,2013-08-15 08:34:00,
2013-08-15 01:39:00,69.8,24.4,24.87,WNW,301,2.0,-999.0,18,-99.99,,,-99.99,dwt +perl,2013-08-15 08:39:00,
2013-08-15 01:44:00,69.6,25.5,24.87,WNW,301,1.0,-999.0,19,-99.99,,,-99.99,dwt +perl,2013-08-15 08:44:00,
2013-08-15 01:49:00,69.2,26.4,24.87,WNW,301,1.0,-999.0,20,-99.99,,,-99.99,dwt +perl,2013-08-15 08:49:00,
2013-08-15 01:54:00,69.1,26.3,24.87,WNW,301,1.0,-999.0,20,-99.99,,,-99.99,dwt +perl,2013-08-15 08:54:00,
2013-08-15 01:59:00,69.3,26.5,24.87,WNW,301,1.0,-999.0,20,-99.99,,,-99.99,dwt +perl,2013-08-15 08:59:00,
2013-08-15 02:04:00,69.4,25.4,24.87,WNW,301,2.0,-999.0,19,-99.99,,,-99.99,dwt +perl,2013-08-15 09:04:00,
2013-08-15 02:09:00,69.2,25.2,24.87,WNW,301,0.0,-999.0,19,-99.99,,,-99.99,dwt +perl,2013-08-15 09:09:00,
2013-08-15 02:14:00,68.8,26.1,24.87,WNW,301,0.0,-999.0,20,-99.99,,,-99.99,dwt +perl,2013-08-15 09:14:00,
2013-08-15 02:19:00,68.5,27.0,24.87,WNW,300,0.0,-999.0,21,-99.99,,,-99.99,dwt +perl,2013-08-15 09:19:00,
2013-08-15 02:24:00,68.6,27.1,24.87,WNW,301,2.0,-999.0,21,-99.99,,,-99.99,dwt +perl,2013-08-15 09:24:00,
2013-08-15 02:29:00,68.6,27.1,24.87,WNW,301,0.0,-999.0,21,-99.99,,,-99.99,dwt +perl,2013-08-15 09:29:00,
2013-08-15 02:34:00,68.6,27.1,24.87,WNW,301,1.0,-999.0,21,-99.99,,,-99.99,dwt +perl,2013-08-15 09:34:00,
2013-08-15 02:39:00,68.6,25.9,24.87,WNW,301,0.0,-999.0,20,-99.99,,,-99.99,dwt +perl,2013-08-15 09:39:00,
2013-08-15 02:44:00,68.6,25.9,24.87,WNW,301,1.0,-999.0,20,-99.99,,,-99.99,dwt +perl,2013-08-15 09:44:00,
2013-08-15 02:49:00,68.6,25.9,24.87,WNW,301,0.0,-999.0,20,-99.99,,,-99.99,dwt +perl,2013-08-15 09:49:00,
2013-08-15 02:54:00,68.4,25.8,24.86,WNW,301,2.0,-999.0,20,-99.99,,,-99.99,dwt +perl,2013-08-15 09:54:00,
2013-08-15 02:59:00,68.2,25.6,24.86,WNW,301,1.0,-999.0,20,-99.99,,,-99.99,dwt +perl,2013-08-15 09:59:00,
2013-08-15 03:04:00,68.0,26.6,24.86,WNW,301,1.0,-999.0,21,-99.99,,,-99.99,dwt +perl,2013-08-15 10:04:00,
2013-08-15 03:09:00,67.9,26.5,24.86,WNW,301,1.0,-999.0,21,-99.99,,,-99.99,dwt +perl,2013-08-15 10:09:00,
2013-08-15 03:14:00,67.9,26.5,24.86,WNW,301,1.0,-999.0,21,-99.99,,,-99.99,dwt +perl,2013-08-15 10:14:00,
2013-08-15 03:19:00,67.9,26.5,24.86,WNW,301,1.0,-999.0,21,-99.99,,,-99.99,dwt +perl,2013-08-15 10:19:00,
2013-08-15 03:24:00,68.1,26.7,24.86,WNW,301,1.0,-999.0,21,-99.99,,,-99.99,dwt +perl,2013-08-15 10:24:00,
2013-08-15 03:29:00,67.9,26.5,24.86,WNW,301,1.0,-999.0,21,-99.99,,,-99.99,dwt +perl,2013-08-15 10:29:00,
2013-08-15 03:34:00,67.9,27.6,24.86,WNW,301,0.0,-999.0,22,-99.99,,,-99.99,dwt +perl,2013-08-15 10:34:00,
2013-08-15 03:39:00,68.2,26.8,24.86,WNW,301,2.0,-999.0,21,-99.99,,,-99.99,dwt +perl,2013-08-15 10:39:00,
2013-08-15 03:44:00,68.6,27.1,24.86,WNW,301,1.0,-999.0,21,-99.99,,,-99.99,dwt +perl,2013-08-15 10:44:00,
2013-08-15 03:49:00,68.8,27.3,24.86,WNW,301,2.0,-999.0,21,-99.99,,,-99.99,dwt +perl,2013-08-15 10:49:00,
2013-08-15 03:54:00,68.8,26.1,24.86,WNW,301,2.0,-999.0,20,-99.99,,,-99.99,dwt +perl,2013-08-15 10:54:00,
2013-08-15 03:59:00,68.8,28.4,24.86,WNW,301,1.0,-999.0,22,-99.99,,,-99.99,dwt +perl,2013-08-15 10:59:00,
2013-08-15 04:04:00,68.8,29.5,24.86,WNW,301,2.0,-999.0,23,-99.99,,,-99.99,dwt +perl,2013-08-15 11:04:00,
2013-08-15 04:09:00,68.8,29.5,24.86,WNW,301,5.0,-999.0,23,-99.99,,,-99.99,dwt +perl,2013-08-15 11:09:00,
2013-08-15 04:14:00,68.8,27.3,24.86,WNW,301,2.0,-999.0,21,-99.99,,,-99.99,dwt +perl,2013-08-15 11:14:00,
2013-08-15 04:19:00,68.8,29.5,24.86,WNW,300,1.0,-999.0,23,-99.99,,,-99.99,dwt +perl,2013-08-15 11:19:00,
2013-08-15 04:24:00,68.6,28.2,24.86,WNW,299,3.0,-999.0,22,-99.99,,,-99.99,dwt +perl,2013-08-15 11:24:00,
2013-08-15 04:29:00,68.6,28.2,24.86,WNW,296,3.0,-999.0,22,-99.99,,,-99.99,dwt +perl,2013-08-15 11:29:00,
2013-08-15 04:34:00,68.6,28.2,24.86,West,261,1.0,-999.0,22,-99.99,,,-99.99,dwt +perl,2013-08-15 11:34:00,
2013-08-15 04:39:00,68.5,28.1,24.86,WSW,239,2.0,-999.0,22,-99.99,,,-99.99,dwt +perl,2013-08-15 11:39:00,
2013-08-15 04:44:00,68.6,29.3,24.86,SW,235,2.0,-999.0,23,-99.99,,,-99.99,dwt +perl,2013-08-15 11:44:00,
2013-08-15 04:49:00,68.6,29.3,24.86,SW,235,3.0,-999.0,23,-99.99,,,-99.99,dwt +perl,2013-08-15 11:49:00,
2013-08-15 04:54:00,68.5,30.3,24.86,SW,233,2.0,-999.0,24,-99.99,,,-99.99,dwt +perl,2013-08-15 11:54:00,
2013-08-15 04:59:00,68.4,31.2,24.86,SW,230,3.0,-999.0,25,-99.99,,,-99.99,dwt +perl,2013-08-15 11:59:00,
2013-08-15 05:04:00,68.5,31.3,24.86,SW,222,7.0,-999.0,25,-99.99,,,-99.99,dwt +perl,2013-08-15 12:04:00,
2013-08-15 05:09:00,68.5,31.3,24.86,SW,216,4.0,-999.0,25,-99.99,,,-99.99,dwt +perl,2013-08-15 12:09:00,
2013-08-15 05:14:00,68.2,31.0,24.86,SW,215,8.0,-999.0,25,-99.99,,,-99.99,dwt +perl,2013-08-15 12:14:00,
2013-08-15 05:19:00,68.3,31.1,24.86,SSW,208,7.0,-999.0,25,-99.99,,,-99.99,dwt +perl,2013-08-15 12:19:00,
2013-08-15 05:24:00,68.5,31.3,24.86,SSW,208,7.0,-999.0,25,-99.99,,,-99.99,dwt +perl,2013-08-15 12:24:00,
2013-08-15 05:29:00,68.5,31.3,24.86,SSW,206,7.0,-999.0,25,-99.99,,,-99.99,dwt +perl,2013-08-15 12:29:00,
2013-08-15 05:34:00,68.6,31.4,24.86,SSW,206,4.0,-999.0,25,-99.99,,,-99.99,dwt +perl,2013-08-15 12:34:00,
2013-08-15 05:39:00,68.4,31.2,24.86,SSW,204,6.0,-999.0,25,-99.99,,,-99.99,dwt +perl,2013-08-15 12:39:00,
2013-08-15 05:44:00,68.4,31.2,24.86,SSW,199,6.0,-999.0,25,-99.99,,,-99.99,dwt +perl,2013-08-15 12:44:00,
2013-08-15 05:49:00,68.3,31.1,24.86,SSW,199,4.0,-999.0,25,-99.99,,,-99.99,dwt +perl,2013-08-15 12:49:00,
2013-08-15 05:54:00,68.2,32.0,24.86,SSW,198,5.0,-999.0,26,-99.99,,,-99.99,dwt +perl,2013-08-15 12:54:00,
2013-08-15 05:59:00,68.0,31.8,24.86,SSW,198,4.0,-999.0,26,-99.99,,,-99.99,dwt +perl,2013-08-15 12:59:00,
2013-08-15 06:04:00,67.7,32.5,24.86,SSW,199,3.0,-999.0,27,-99.99,,,-99.99,dwt +perl,2013-08-15 13:04:00,
2013-08-15 06:09:00,67.5,32.3,24.86,SSW,198,4.0,-999.0,27,-99.99,,,-99.99,dwt +perl,2013-08-15 13:09:00,
2013-08-15 06:14:00,67.4,32.2,24.86,SSW,198,3.0,-999.0,27,-99.99,,,-99.99,dwt +perl,2013-08-15 13:14:00,
2013-08-15 06:19:00,67.3,32.2,24.86,SSW,197,3.0,-999.0,27,-99.99,,,-99.99,dwt +perl,2013-08-15 13:19:00,
2013-08-15 06:24:00,67.2,31.1,24.86,SSW,199,7.0,-999.0,26,-99.99,,,-99.99,dwt +perl,2013-08-15 13:24:00,
2013-08-15 06:29:00,67.3,32.2,24.87,SSW,200,6.0,-999.0,27,-99.99,,,-99.99,dwt +perl,2013-08-15 13:29:00,
2013-08-15 06:34:00,67.3,31.2,24.87,SSW,201,6.0,-999.0,26,-99.99,,,-99.99,dwt +perl,2013-08-15 13:34:00,
2013-08-15 06:39:00,67.3,31.2,24.87,SSW,210,7.0,-999.0,26,-99.99,,,-99.99,dwt +perl,2013-08-15 13:39:00,
2013-08-15 06:44:00,67.4,31.3,24.87,SSW,210,8.0,-999.0,26,-99.99,,,-99.99,dwt +perl,2013-08-15 13:44:00,
2013-08-15 06:49:00,67.5,31.4,24.87,SSW,208,8.0,-999.0,26,-99.99,,,-99.99,dwt +perl,2013-08-15 13:49:00,
2013-08-15 06:54:00,67.7,30.6,24.87,SSW,211,8.0,-999.0,25,-99.99,,,-99.99,dwt +perl,2013-08-15 13:54:00,
2013-08-15 06:59:00,68.0,29.9,24.87,SW,216,7.0,-999.0,24,-99.99,,,-99.99,dwt +perl,2013-08-15 13:59:00,
2013-08-15 07:04:00,68.3,31.1,24.87,SSW,211,7.0,-999.0,25,-99.99,,,-99.99,dwt +perl,2013-08-15 14:04:00,
2013-08-15 07:09:00,68.4,31.2,24.87,SSW,204,7.0,-999.0,25,-99.99,,,-99.99,dwt +perl,2013-08-15 14:09:00,
2013-08-15 07:14:00,68.4,31.2,24.88,SSW,208,0.0,-999.0,25,-99.99,,,-99.99,dwt +perl,2013-08-15 14:14:00,
2013-08-15 07:19:00,68.5,30.3,24.88,SSW,208,7.0,-999.0,24,-99.99,,,-99.99,dwt +perl,2013-08-15 14:19:00,
2013-08-15 07:24:00,68.5,30.3,24.88,SSW,206,7.0,-999.0,24,-99.99,,,-99.99,dwt +perl,2013-08-15 14:24:00,
2013-08-15 07:29:00,68.5,29.2,24.88,SSW,209,5.0,-999.0,23,-99.99,,,-99.99,dwt +perl,2013-08-15 14:29:00,
2013-08-15 07:34:00,68.6,30.4,24.88,SSW,208,5.0,-999.0,24,-99.99,,,-99.99,dwt +perl,2013-08-15 14:34:00,
2013-08-15 07:39:00,68.4,31.2,24.88,SSW,208,7.0,-999.0,25,-99.99,,,-99.99,dwt +perl,2013-08-15 14:39:00,
2013-08-15 07:44:00,68.3,31.1,24.88,SW,215,6.0,-999.0,25,-99.99,,,-99.99,dwt +perl,2013-08-15 14:44:00,
2013-08-15 07:49:00,68.2,31.0,24.88,SSW,210,7.0,-999.0,25,-99.99,,,-99.99,dwt +perl,2013-08-15 14:49:00,
2013-08-15 07:59:00,68.2,31.0,24.88,SSW,213,12.0,-999.0,25,-99.99,,,-99.99,dwt +perl,2013-08-15 14:59:00,
2013-08-15 08:04:00,68.3,30.1,24.88,SSW,208,7.0,-999.0,24,-99.99,,,-99.99,dwt +perl,2013-08-15 15:04:00,
2013-08-15 08:14:00,68.5,30.3,24.88,SSW,205,7.0,-999.0,24,-99.99,,,-99.99,dwt +perl,2013-08-15 15:14:00,
2013-08-15 08:24:00,68.5,30.3,24.88,SSW,206,7.0,-999.0,24,-99.99,,,-99.99,dwt +perl,2013-08-15 15:24:00,
2013-08-15 08:29:00,68.7,27.2,24.88,SW,220,7.0,-999.0,21,-99.99,,,-99.99,dwt +perl,2013-08-15 15:29:00,
2013-08-15 08:34:00,68.9,27.4,24.89,SSW,210,8.0,-999.0,21,-99.99,,,-99.99,dwt +perl,2013-08-15 15:34:00,
2013-08-15 08:39:00,69.1,26.3,24.89,SW,217,10.0,-999.0,20,-99.99,,,-99.99,dwt +perl,2013-08-15 15:39:00,
2013-08-15 08:44:00,69.3,25.3,24.89,SW,216,6.0,-999.0,19,-99.99,,,-99.99,dwt +perl,2013-08-15 15:44:00,
2013-08-15 08:49:00,69.4,27.8,24.89,SW,216,5.0,-999.0,21,-99.99,,,-99.99,dwt +perl,2013-08-15 15:49:00,
2013-08-15 08:54:00,69.6,27.9,24.89,SW,226,5.0,-999.0,21,-99.99,,,-99.99,dwt +perl,2013-08-15 15:54:00,
2013-08-15 08:59:00,69.9,28.2,24.89,SSW,200,2.0,-999.0,21,-99.99,,,-99.99,dwt +perl,2013-08-15 15:59:00,
2013-08-15 09:04:00,70.3,28.5,24.89,SSW,202,4.0,-999.0,21,-99.99,,,-99.99,dwt +perl,2013-08-15 16:04:00,
2013-08-15 09:09:00,70.6,29.9,24.89,SSW,204,6.0,-999.0,22,-99.99,,,-99.99,dwt +perl,2013-08-15 16:09:00,
2013-08-15 09:10:00,71.1,29.2,24.89,SSW,206,0.0,-999.0,21,-99.99,,,-99.99,dwt +perl,2013-08-15 16:10:00,
2013-08-15 09:14:00,70.8,28.9,24.89,SSW,206,6.0,-999.0,21,-99.99,,,-99.99,dwt +perl,2013-08-15 16:14:00,
2013-08-15 09:24:00,71.7,30.8,24.89,SSW,206,4.0,-999.0,22,-99.99,,,-99.99,dwt +perl,2013-08-15 16:24:00,
2013-08-15 09:29:00,72.2,30.1,24.90,SSW,205,6.0,-999.0,21,-99.99,,,-99.99,dwt +perl,2013-08-15 16:29:00,
2013-08-15 09:34:00,72.2,30.1,24.90,SSW,196,0.0,-999.0,21,-99.99,,,-99.99,dwt +perl,2013-08-15 16:34:00,
2013-08-15 09:39:00,72.3,30.2,24.90,SSW,196,0.0,-999.0,21,-99.99,,,-99.99,dwt +perl,2013-08-15 16:39:00,
2013-08-15 09:44:00,72.5,30.3,24.90,SSW,196,3.0,-999.0,21,-99.99,,,-99.99,dwt +perl,2013-08-15 16:44:00,
2013-08-15 09:49:00,72.5,30.3,24.90,SSW,202,5.0,-999.0,21,-99.99,,,-99.99,dwt +perl,2013-08-15 16:49:00,
2013-08-15 09:54:00,72.7,31.6,24.90,SSW,207,7.0,-999.0,22,-99.99,,,-99.99,dwt +perl,2013-08-15 16:54:00,
2013-08-15 09:59:00,72.7,30.5,24.90,SSW,210,5.0,-999.0,21,-99.99,,,-99.99,dwt +perl,2013-08-15 16:59:00,
2013-08-15 10:04:00,73.0,31.9,24.90,SSW,210,3.0,-999.0,22,-99.99,,,-99.99,dwt +perl,2013-08-15 17:04:00,
2013-08-15 10:09:00,73.5,30.0,24.90,SSW,203,3.0,-999.0,20,-99.99,,,-99.99,dwt +perl,2013-08-15 17:09:00,
2013-08-15 10:14:00,73.5,32.3,24.90,SSW,202,3.0,-999.0,22,-99.99,,,-99.99,dwt +perl,2013-08-15 17:14:00,
2013-08-15 10:19:00,73.7,31.3,24.90,SSW,211,4.0,-999.0,21,-99.99,,,-99.99,dwt +perl,2013-08-15 17:19:00,
2013-08-15 10:24:00,73.9,29.0,24.90,SSW,210,3.0,-999.0,19,-99.99,,,-99.99,dwt +perl,2013-08-15 17:24:00,
2013-08-15 10:34:00,74.9,32.3,24.91,SSW,210,6.0,-999.0,21,-99.99,,,-99.99,dwt +perl,2013-08-15 17:34:00,
2013-08-15 10:44:00,74.5,28.2,24.91,SW,220,0.0,-999.0,18,-99.99,,,-99.99,dwt +perl,2013-08-15 17:44:00,
2013-08-15 10:49:00,74.7,31.0,24.91,SW,220,1.0,-999.0,20,-99.99,,,-99.99,dwt +perl,2013-08-15 17:49:00,
2013-08-15 10:59:00,76.4,32.3,24.91,SSE,158,1.0,-999.0,20,-99.99,,,-99.99,dwt +perl,2013-08-15 17:59:00,
2013-08-15 11:00:00,76.2,30.9,24.91,WSW,246,3.0,-999.0,19,-99.99,,,-99.99,dwt +perl,2013-08-15 18:00:00,
2013-08-15 11:04:00,76.4,32.3,24.91,SSW,204,0.0,-999.0,20,-99.99,,,-99.99,dwt +perl,2013-08-15 18:04:00,
2013-08-15 11:09:00,76.2,30.9,24.91,WSW,246,3.0,-999.0,19,-99.99,,,-99.99,dwt +perl,2013-08-15 18:09:00,
2013-08-15 11:19:00,75.9,29.4,24.91,WSW,242,3.0,-999.0,18,-99.99,,,-99.99,dwt +perl,2013-08-15 18:19:00,
2013-08-15 11:29:00,76.6,34.9,24.90,SW,232,0.0,-999.0,22,-99.99,,,-99.99,dwt +perl,2013-08-15 18:29:00,
2013-08-15 11:34:00,77.5,33.2,24.90,West,274,3.0,-999.0,20,-99.99,,,-99.99,dwt +perl,2013-08-15 18:34:00,
2013-08-15 11:39:00,77.9,32.3,24.91,SW,235,1.0,-999.0,19,-99.99,,,-99.99,dwt +perl,2013-08-15 18:39:00,
2013-08-15 11:44:00,77.5,30.6,24.90,WSW,237,0.0,-999.0,18,-99.99,,,-99.99,dwt +perl,2013-08-15 18:44:00,
2013-08-15 11:49:00,78.0,33.7,24.90,WSW,237,0.0,-999.0,20,-99.99,,,-99.99,dwt +perl,2013-08-15 18:49:00,
2013-08-15 11:59:00,78.7,31.6,24.91,SSW,204,1.0,-999.0,18,-99.99,,,-99.99,dwt +perl,2013-08-15 18:59:00,
2013-08-15 12:04:00,77.8,29.5,24.91,WSW,249,5.0,-999.0,17,-99.99,,,-99.99,dwt +perl,2013-08-15 19:04:00,
2013-08-15 12:14:00,77.9,28.1,24.90,WSW,258,5.0,-999.0,16,-99.99,,,-99.99,dwt +perl,2013-08-15 19:14:00,
2013-08-15 12:19:00,77.8,26.4,24.90,SSW,210,7.0,-999.0,15,-99.99,,,-99.99,dwt +perl,2013-08-15 19:19:00,
2013-08-15 12:29:00,78.7,36.6,24.90,West,259,2.0,-999.0,22,-99.99,,,-99.99,dwt +perl,2013-08-15 19:29:00,
2013-08-15 12:34:00,79.4,32.2,24.90,WSW,249,0.0,-999.0,18,-99.99,,,-99.99,dwt +perl,2013-08-15 19:34:00,
2013-08-15 12:39:00,80.1,37.8,24.90,WSW,245,2.0,-999.0,22,-99.99,,,-99.99,dwt +perl,2013-08-15 19:39:00,
2013-08-15 12:44:00,80.8,28.8,24.90,WSW,245,0.0,-999.0,15,-99.99,,,-99.99,dwt +perl,2013-08-15 19:44:00,
2013-08-15 12:54:00,81.4,33.8,24.90,NE,39,5.0,-999.0,18,-99.99,,,-99.99,dwt +perl,2013-08-15 19:54:00,
2013-08-15 12:55:00,81.1,39.8,24.90,ENE,58,2.0,-999.0,23,-99.99,,,-99.99,dwt +perl,2013-08-15 19:55:00,
2013-08-15 12:59:00,80.9,39.6,24.90,ENE,65,3.0,-999.0,23,-99.99,,,-99.99,dwt +perl,2013-08-15 19:59:00,
2013-08-15 13:09:00,80.3,36.8,24.90,NNW,343,2.0,-999.0,21,-99.99,,,-99.99,dwt +perl,2013-08-15 20:09:00,
2013-08-15 13:19:00,80.1,28.3,24.90,SW,222,1.0,-999.0,15,-99.99,,,-99.99,dwt +perl,2013-08-15 20:19:00,
2013-08-15 13:24:00,80.9,28.9,24.90,SSW,203,6.0,-999.0,15,-99.99,,,-99.99,dwt +perl,2013-08-15 20:24:00,
2013-08-15 13:29:00,81.4,37.7,24.90,South,180,2.0,-999.0,21,-99.99,,,-99.99,dwt +perl,2013-08-15 20:29:00,
2013-08-15 13:34:00,81.1,25.6,24.90,SSW,193,0.0,-999.0,13,-99.99,,,-99.99,dwt +perl,2013-08-15 20:34:00,
2013-08-15 13:44:00,81.4,38.9,24.90,NW,314,0.0,-999.0,22,-99.99,,,-99.99,dwt +perl,2013-08-15 20:44:00,
2013-08-15 13:49:00,81.3,33.7,24.90,South,179,1.0,-999.0,18,-99.99,,,-99.99,dwt +perl,2013-08-15 20:49:00,
2013-08-15 13:50:00,80.6,40.5,24.90,WSW,241,11.0,-999.0,24,-99.99,,,-99.99,dwt +perl,2013-08-15 20:50:00,
2013-08-15 13:54:00,81.4,37.7,24.90,West,276,3.0,-999.0,21,-99.99,,,-99.99,dwt +perl,2013-08-15 20:54:00,
2013-08-15 14:04:00,78.9,43.0,24.90,NNW,334,2.0,-999.0,28,-99.99,,,-99.99,dwt +perl,2013-08-15 21:04:00,
2013-08-15 14:14:00,79.1,44.1,24.90,SSW,203,1.0,-999.0,29,-99.99,,,-99.99,dwt +perl,2013-08-15 21:14:00,
2013-08-15 14:24:00,79.4,44.3,24.89,SW,230,0.0,-999.0,29,-99.99,,,-99.99,dwt +perl,2013-08-15 21:24:00,
2013-08-15 14:29:00,80.4,45.2,24.89,SSW,204,11.0,-999.0,29,-99.99,,,-99.99,dwt +perl,2013-08-15 21:29:00,
2013-08-15 14:39:00,78.7,46.3,24.89,SW,233,4.0,-999.0,32,-99.99,,,-99.99,dwt +perl,2013-08-15 21:39:00,
2013-08-15 14:44:00,79.2,46.8,24.89,WSW,238,7.0,-999.0,32,-99.99,,,-99.99,dwt +perl,2013-08-15 21:44:00,
2013-08-15 14:49:00,78.7,47.2,24.89,SW,216,2.0,-999.0,33,-99.99,,,-99.99,dwt +perl,2013-08-15 21:49:00,
2013-08-15 14:54:00,78.1,45.8,24.89,South,191,3.0,-999.0,32,-99.99,,,-99.99,dwt +perl,2013-08-15 21:54:00,
2013-08-15 14:59:00,78.4,46.1,24.89,SW,219,3.0,-999.0,32,-99.99,,,-99.99,dwt +perl,2013-08-15 21:59:00,
2013-08-15 15:09:00,78.5,46.2,24.89,SW,228,7.0,-999.0,32,-99.99,,,-99.99,dwt +perl,2013-08-15 22:09:00,
2013-08-15 15:14:00,79.0,46.6,24.89,SSW,208,5.0,-999.0,32,-99.99,,,-99.99,dwt +perl,2013-08-15 22:14:00,
2013-08-15 15:19:00,79.1,45.0,24.89,SSW,210,5.0,-999.0,30,-99.99,,,-99.99,dwt +perl,2013-08-15 22:19:00,
2013-08-15 15:24:00,79.1,45.0,24.89,SW,217,11.0,-999.0,30,-99.99,,,-99.99,dwt +perl,2013-08-15 22:24:00,
2013-08-15 15:29:00,78.6,45.4,24.89,WSW,255,5.0,-999.0,31,-99.99,,,-99.99,dwt +perl,2013-08-15 22:29:00,
2013-08-15 15:34:00,78.5,45.3,24.89,SW,218,8.0,-999.0,31,-99.99,,,-99.99,dwt +perl,2013-08-15 22:34:00,
2013-08-15 15:39:00,78.1,45.0,24.89,SW,226,8.0,-999.0,31,-99.99,,,-99.99,dwt +perl,2013-08-15 22:39:00,
2013-08-15 15:44:00,78.1,45.0,24.89,SSW,203,12.0,-999.0,31,-99.99,,,-99.99,dwt +perl,2013-08-15 22:44:00,
2013-08-15 15:49:00,77.8,44.7,24.88,SW,235,4.0,-999.0,31,-99.99,,,-99.99,dwt +perl,2013-08-15 22:49:00,
2013-08-15 15:54:00,77.0,43.2,24.88,West,278,4.0,-999.0,30,-99.99,,,-99.99,dwt +perl,2013-08-15 22:54:00,
2013-08-15 15:59:00,76.3,44.2,24.89,WNW,301,5.0,-999.0,32,-99.99,,,-99.99,dwt +perl,2013-08-15 22:59:00,
2013-08-15 16:04:00,77.4,44.4,24.88,WSW,239,3.0,-999.0,31,-99.99,,,-99.99,dwt +perl,2013-08-15 23:04:00,
2013-08-15 16:09:00,77.1,44.1,24.88,WNW,287,5.0,-999.0,31,-99.99,,,-99.99,dwt +perl,2013-08-15 23:09:00,
2013-08-15 16:14:00,75.9,44.7,24.88,WSW,250,3.0,-999.0,33,-99.99,,,-99.99,dwt +perl,2013-08-15 23:14:00,
2013-08-15 16:19:00,76.9,45.6,24.88,West,270,4.0,-999.0,33,-99.99,,,-99.99,dwt +perl,2013-08-15 23:19:00,
2013-08-15 16:24:00,76.8,43.8,24.88,West,280,4.0,-999.0,31,-99.99,,,-99.99,dwt +perl,2013-08-15 23:24:00,
2013-08-15 16:29:00,76.6,45.3,24.88,WNW,290,4.0,-999.0,33,-99.99,,,-99.99,dwt +perl,2013-08-15 23:29:00,
2013-08-15 16:34:00,76.2,45.8,24.88,WNW,298,4.0,-999.0,34,-99.99,,,-99.99,dwt +perl,2013-08-15 23:34:00,
2013-08-15 16:44:00,76.2,45.0,24.88,SW,222,12.0,-999.0,33,-99.99,,,-99.99,dwt +perl,2013-08-15 23:44:00,
2013-08-15 16:49:00,75.7,44.5,24.88,WNW,289,6.0,-999.0,33,-99.99,,,-99.99,dwt +perl,2013-08-15 23:49:00,
2013-08-15 16:54:00,75.9,47.0,24.88,SW,233,4.0,-999.0,36,-99.99,,,-99.99,dwt +perl,2013-08-15 23:54:00,
2013-08-15 16:59:00,76.2,45.0,24.88,SSW,204,2.0,-999.0,33,-99.99,,,-99.99,dwt +perl,2013-08-15 23:59:00,
2013-08-15 17:04:00,76.2,41.6,24.88,West,281,5.0,-999.0,29,-99.99,,,-99.99,dwt +perl,2013-08-16 00:04:00,
2013-08-15 17:09:00,76.1,45.7,24.88,West,274,4.0,-999.0,34,-99.99,,,-99.99,dwt +perl,2013-08-16 00:09:00,
2013-08-15 17:14:00,76.7,46.2,24.88,SW,231,4.0,-999.0,34,-99.99,,,-99.99,dwt +perl,2013-08-16 00:14:00,
2013-08-15 17:19:00,76.7,47.0,24.88,SW,223,3.0,-999.0,35,-99.99,,,-99.99,dwt +perl,2013-08-16 00:19:00,
2013-08-15 17:29:00,76.0,46.3,24.88,WSW,243,5.0,-999.0,35,-99.99,,,-99.99,dwt +perl,2013-08-16 00:29:00,
2013-08-15 17:34:00,75.6,46.0,24.88,SW,215,10.0,-999.0,35,-99.99,,,-99.99,dwt +perl,2013-08-16 00:34:00,
2013-08-15 17:39:00,74.8,44.5,24.88,WSW,237,6.0,-999.0,34,-99.99,,,-99.99,dwt +perl,2013-08-16 00:39:00,
2013-08-15 17:44:00,74.8,46.8,24.88,SW,214,6.0,-999.0,37,-99.99,,,-99.99,dwt +perl,2013-08-16 00:44:00,
2013-08-15 17:49:00,74.9,44.6,24.88,West,278,7.0,-999.0,34,-99.99,,,-99.99,dwt +perl,2013-08-16 00:49:00,
2013-08-15 17:54:00,74.4,46.4,24.88,SW,218,7.0,-999.0,37,-99.99,,,-99.99,dwt +perl,2013-08-16 00:54:00,
2013-08-15 17:59:00,74.2,46.9,24.88,WSW,240,9.0,-999.0,38,-99.99,,,-99.99,dwt +perl,2013-08-16 00:59:00,
2013-08-15 18:04:00,73.3,46.8,24.88,West,259,5.0,-999.0,39,-99.99,,,-99.99,dwt +perl,2013-08-16 01:04:00,
2013-08-15 18:14:00,73.0,43.7,24.88,WNW,283,4.0,-999.0,35,-99.99,,,-99.99,dwt +perl,2013-08-16 01:14:00,
2013-08-15 18:19:00,73.4,48.2,24.88,SSW,208,9.0,-999.0,41,-99.99,,,-99.99,dwt +perl,2013-08-16 01:19:00,
2013-08-15 18:24:00,73.0,47.9,24.88,SW,222,10.0,-999.0,41,-99.99,,,-99.99,dwt +perl,2013-08-16 01:24:00,
2013-08-15 18:29:00,72.6,45.5,24.88,WSW,246,7.0,-999.0,38,-99.99,,,-99.99,dwt +perl,2013-08-16 01:29:00,
2013-08-15 18:34:00,72.8,48.3,24.88,SW,216,8.0,-999.0,42,-99.99,,,-99.99,dwt +perl,2013-08-16 01:34:00,
2013-08-15 18:44:00,72.9,45.8,24.88,SW,232,4.0,-999.0,38,-99.99,,,-99.99,dwt +perl,2013-08-16 01:44:00,
2013-08-15 18:49:00,73.3,46.8,24.88,SW,234,5.0,-999.0,39,-99.99,,,-99.99,dwt +perl,2013-08-16 01:49:00,
2013-08-15 18:54:00,73.1,46.7,24.88,SW,231,4.0,-999.0,39,-99.99,,,-99.99,dwt +perl,2013-08-16 01:54:00,
2013-08-15 18:59:00,72.9,47.8,24.88,SW,233,3.0,-999.0,41,-99.99,,,-99.99,dwt +perl,2013-08-16 01:59:00,
2013-08-15 19:04:00,72.8,46.4,24.88,SW,233,3.0,-999.0,39,-99.99,,,-99.99,dwt +perl,2013-08-16 02:04:00,
2013-08-15 19:09:00,72.6,45.5,24.88,SW,233,3.0,-999.0,38,-99.99,,,-99.99,dwt +perl,2013-08-16 02:09:00,
2013-08-15 19:14:00,72.5,47.4,24.88,SW,233,1.0,-999.0,41,-99.99,,,-99.99,dwt +perl,2013-08-16 02:14:00,
2013-08-15 19:19:00,72.4,47.3,24.88,SW,233,4.0,-999.0,41,-99.99,,,-99.99,dwt +perl,2013-08-16 02:19:00,
2013-08-15 19:24:00,72.1,42.9,24.88,SW,233,2.0,-999.0,35,-99.99,,,-99.99,dwt +perl,2013-08-16 02:24:00,
2013-08-15 19:29:00,72.0,44.3,24.88,SW,233,5.0,-999.0,37,-99.99,,,-99.99,dwt +perl,2013-08-16 02:29:00,
2013-08-15 19:34:00,71.8,43.4,24.88,SW,233,6.0,-999.0,36,-99.99,,,-99.99,dwt +perl,2013-08-16 02:34:00,
2013-08-15 19:39:00,71.7,41.8,24.88,SW,231,7.0,-999.0,34,-99.99,,,-99.99,dwt +perl,2013-08-16 02:39:00,
2013-08-15 19:44:00,71.7,37.7,24.88,SW,230,9.0,-999.0,29,-99.99,,,-99.99,dwt +perl,2013-08-16 02:44:00,
2013-08-15 19:49:00,71.8,29.8,24.88,WSW,240,10.0,-999.0,21,-99.99,,,-99.99,dwt +perl,2013-08-16 02:49:00,
2013-08-15 19:54:00,71.8,29.8,24.88,SW,228,11.0,-999.0,21,-99.99,,,-99.99,dwt +perl,2013-08-16 02:54:00,
2013-08-15 19:59:00,71.8,23.2,24.88,WSW,239,11.0,-999.0,16,-99.99,,,-99.99,dwt +perl,2013-08-16 02:59:00,
2013-08-15 20:04:00,71.6,23.0,24.88,SW,231,12.0,-999.0,16,-99.99,,,-99.99,dwt +perl,2013-08-16 03:04:00,
2013-08-15 20:09:00,71.9,23.3,24.88,SW,236,12.0,-999.0,16,-99.99,,,-99.99,dwt +perl,2013-08-16 03:09:00,
2013-08-15 20:14:00,71.9,23.3,24.89,SW,234,11.0,-999.0,16,-99.99,,,-99.99,dwt +perl,2013-08-16 03:14:00,
2013-08-15 20:19:00,72.2,18.6,24.89,SW,234,11.0,-999.0,13,-99.99,,,-99.99,dwt +perl,2013-08-16 03:19:00,
2013-08-15 20:24:00,72.3,18.7,24.89,SW,236,8.0,-999.0,13,-99.99,,,-99.99,dwt +perl,2013-08-16 03:24:00,
2013-08-15 20:29:00,72.4,18.8,24.89,WSW,239,10.0,-999.0,13,-99.99,,,-99.99,dwt +perl,2013-08-16 03:29:00,
2013-08-15 20:34:00,72.2,20.4,24.89,SW,234,11.0,-999.0,14,-99.99,,,-99.99,dwt +perl,2013-08-16 03:34:00,
2013-08-15 20:39:00,72.3,14.9,24.89,WSW,237,11.0,-999.0,11,-99.99,,,-99.99,dwt +perl,2013-08-16 03:39:00,
2013-08-15 20:44:00,72.3,14.9,24.90,WSW,238,12.0,-999.0,11,-99.99,,,-99.99,dwt +perl,2013-08-16 03:44:00,
2013-08-15 20:49:00,72.3,14.9,24.90,SW,236,10.0,-999.0,11,-99.99,,,-99.99,dwt +perl,2013-08-16 03:49:00,
2013-08-15 20:54:00,72.5,12.9,24.90,SW,235,11.0,-999.0,10,-99.99,,,-99.99,dwt +perl,2013-08-16 03:54:00,
2013-08-15 20:59:00,72.5,12.9,24.90,SW,235,11.0,-999.0,10,-99.99,,,-99.99,dwt +perl,2013-08-16 03:59:00,
2013-08-15 21:04:00,72.4,12.8,24.90,WSW,238,11.0,-999.0,10,-99.99,,,-99.99,dwt +perl,2013-08-16 04:04:00,
2013-08-15 21:09:00,72.5,10.5,24.90,SW,234,11.0,-999.0,9,-99.99,,,-99.99,dwt +perl,2013-08-16 04:09:00,
2013-08-15 21:14:00,72.6,10.6,24.90,SW,229,11.0,-999.0,9,-99.99,,,-99.99,dwt +perl,2013-08-16 04:14:00,
2013-08-15 21:19:00,72.6,10.6,24.90,SW,235,9.0,-999.0,9,-99.99,,,-99.99,dwt +perl,2013-08-16 04:19:00,
2013-08-15 21:24:00,72.6,10.6,24.90,SW,235,10.0,-999.0,9,-99.99,,,-99.99,dwt +perl,2013-08-16 04:24:00,
2013-08-15 21:29:00,72.5,10.5,24.90,SW,233,10.0,-999.0,9,-99.99,,,-99.99,dwt +perl,2013-08-16 04:29:00,
2013-08-15 21:34:00,72.7,8.0,24.90,WSW,238,11.0,-999.0,8,-99.99,,,-99.99,dwt +perl,2013-08-16 04:34:00,
2013-08-15 21:39:00,72.6,7.9,24.91,WSW,239,11.0,-999.0,8,-99.99,,,-99.99,dwt +perl,2013-08-16 04:39:00,
2013-08-15 21:44:00,72.9,8.2,24.91,WSW,239,7.0,-999.0,8,-99.99,,,-99.99,dwt +perl,2013-08-16 04:44:00,
2013-08-15 21:49:00,72.8,8.1,24.91,WSW,240,8.0,-999.0,8,-99.99,,,-99.99,dwt +perl,2013-08-16 04:49:00,
2013-08-15 21:54:00,72.7,10.6,24.91,SW,218,10.0,-999.0,9,-99.99,,,-99.99,dwt +perl,2013-08-16 04:54:00,
2013-08-15 21:59:00,72.6,10.6,24.91,WSW,239,7.0,-999.0,9,-99.99,,,-99.99,dwt +perl,2013-08-16 04:59:00,
2013-08-15 22:04:00,72.5,10.5,24.91,SW,235,9.0,-999.0,9,-99.99,,,-99.99,dwt +perl,2013-08-16 05:04:00,
2013-08-15 22:09:00,72.4,10.4,24.91,WSW,243,9.0,-999.0,9,-99.99,,,-99.99,dwt +perl,2013-08-16 05:09:00,
2013-08-15 22:14:00,72.2,10.2,24.91,WSW,241,10.0,-999.0,9,-99.99,,,-99.99,dwt +perl,2013-08-16 05:14:00,
2013-08-15 22:19:00,72.2,10.2,24.91,WSW,240,9.0,-999.0,9,-99.99,,,-99.99,dwt +perl,2013-08-16 05:19:00,
2013-08-15 22:20:00,72.3,10.3,24.91,WSW,244,10.0,-999.0,9,-99.99,,,-99.99,dwt +perl,2013-08-16 05:20:00,
2013-08-15 22:29:00,72.3,10.3,24.91,WSW,244,10.0,-999.0,9,-99.99,,,-99.99,dwt +perl,2013-08-16 05:29:00,
2013-08-15 22:39:00,72.2,12.6,24.91,SW,231,11.0,-999.0,10,-99.99,,,-99.99,dwt +perl,2013-08-16 05:39:00,
2013-08-15 22:44:00,72.2,12.6,24.91,SW,235,9.0,-999.0,10,-99.99,,,-99.99,dwt +perl,2013-08-16 05:44:00,
2013-08-15 22:49:00,72.0,12.5,24.91,SW,234,8.0,-999.0,10,-99.99,,,-99.99,dwt +perl,2013-08-16 05:49:00,
2013-08-15 22:54:00,71.9,12.4,24.91,WSW,241,5.0,-999.0,10,-99.99,,,-99.99,dwt +perl,2013-08-16 05:54:00,
2013-08-15 22:59:00,71.7,14.4,24.91,WSW,239,6.0,-999.0,11,-99.99,,,-99.99,dwt +perl,2013-08-16 05:59:00,
2013-08-15 23:04:00,71.7,14.4,24.91,WSW,239,7.0,-999.0,11,-99.99,,,-99.99,dwt +perl,2013-08-16 06:04:00,
2013-08-15 23:09:00,71.8,12.3,24.91,WSW,237,9.0,-999.0,10,-99.99,,,-99.99,dwt +perl,2013-08-16 06:09:00,
2013-08-15 23:14:00,71.7,14.4,24.91,WSW,238,9.0,-999.0,11,-99.99,,,-99.99,dwt +perl,2013-08-16 06:14:00,
2013-08-15 23:19:00,71.9,12.4,24.91,SW,236,8.0,-999.0,10,-99.99,,,-99.99,dwt +perl,2013-08-16 06:19:00,
2013-08-15 23:24:00,71.7,14.4,24.91,SW,235,8.0,-999.0,11,-99.99,,,-99.99,dwt +perl,2013-08-16 06:24:00,
2013-08-15 23:29:00,71.7,12.2,24.91,WSW,237,9.0,-999.0,10,-99.99,,,-99.99,dwt +perl,2013-08-16 06:29:00,
2013-08-15 23:34:00,71.7,12.2,24.91,SW,235,9.0,-999.0,10,-99.99,,,-99.99,dwt +perl,2013-08-16 06:34:00,
2013-08-15 23:39:00,71.8,9.9,24.91,SW,233,9.0,-999.0,9,-99.99,,,-99.99,dwt +perl,2013-08-16 06:39:00,
2013-08-15 23:44:00,71.7,12.2,24.91,SW,235,7.0,-999.0,10,-99.99,,,-99.99,dwt +perl,2013-08-16 06:44:00,
2013-08-15 23:49:00,71.8,9.9,24.91,SW,236,7.0,-999.0,9,-99.99,,,-99.99,dwt +perl,2013-08-16 06:49:00,
2013-08-15 23:54:00,71.8,9.9,24.91,WSW,237,6.0,-999.0,9,-99.99,,,-99.99,dwt +perl,2013-08-16 06:54:00,
2013-08-15 23:59:00,71.7,9.9,24.91,SW,236,5.0,-999.0,9,-99.99,,,-99.99,dwt +perl,2013-08-16 06:59:00,